Vorticity
1 2 4 -1 3 3 7 14 10 13 9 8 8 -0 1 5 9 12 1 -9 2 -14 3 13 9 6 6 9 10 9 2 6
6 4 4 1 2 3 6 8 7 14 13 9 8 4 7 2 5 1 -4 -7 5 -15 22 18 6 5 9 7 9 5 3 7
11 7 7 3 3 3 6 6 6 9 13 10 8 9 0 -1 1 21 -8 3 -0 28 28 12 5 8 7 8 6 5 5 5
8 6 5 4 4 4 4 6 7 8 11 15 10 11 3 -3 9 7 8 22 14 38 13 4 7 5 7 6 6 5 4 2
7 0 3 6 5 6 5 5 4 10 12 10 12 9 6 11 -12 3 13 -6 4 17 3 5 5 7 6 5 4 5 6 9
5 9 5 6 10 6 3 4 0 8 19 16 9 12 5 3 13 -3 26 23 7 12 3 2 6 4 7 7 7 6 7 8
7 2 3 5 5 2 -1 3 5 6 19 24 12 14 9 4 8 3 -15 10 24 8 23 -6 8 9 9 7 6 6 6 6
6 3 5 6 -1 -0 -4 1 6 8 17 22 21 12 11 6 7 10 -3 31 13 2 5 -3 4 10 9 6 6 4 5 5
7 4 3 6 6 -0 -1 -3 4 9 17 19 21 20 15 7 6 7 3 31 0 6 25 13 11 10 8 7 4 3 6 8
5 11 5 5 6 5 3 -3 2 9 14 14 21 21 14 11 6 5 7 -8 37 2 13 9 11 9 7 5 3 4 6 8
14 15 8 5 1 5 3 -1 1 7 14 9 16 16 14 14 7 8 6 -8 3 -2 -3 3 8 9 7 4 4 4 7 7
19 13 7 5 4 6 5 2 -1 4 12 12 11 17 11 16 7 9 5 20 9 -6 12 2 7 8 8 3 5 5 5 8
5 11 8 4 7 4 9 4 -1 4 9 14 11 12 6 20 0 44 13 14 5 5 22 -2 6 6 8 2 3 5 4 7
10 11 10 9 7 5 7 4 1 5 8 16 17 11 13 -15 16 23 32 12 7 11 -1 10 5 6 5 5 4 4 3 5
11 2 5 7 7 6 3 4 1 5 9 18 17 10 16 -2 18 3 27 24 2 1 13 -1 5 9 6 5 3 3 4 4
10 6 8 6 0 7 7 7 0 7 9 18 15 10 10 -6 21 1 -13 17 -1 -5 24 13 5 4 7 7 5 8 6 4
12 15 9 12 6 6 9 7 1 4 15 16 14 9 7 11 11 22 13 22 -3 7 0 1 -5 3 10 7 7 8 2 7
10 3 2 2 2 7 9 4 3 5 18 12 8 12 15 18 17 30 27 30 28 10 1 11 1 11 8 9 9 10 7 4
8 10 8 6 13 20 9 1 3 11 12 10 9 7 16 9 23 26 22 6 4 45 -2 4 5 0 3 7 7 7 8 8
15 4 1 7 18 17 5 2 5 14 8 11 8 13 31 21 -1 15 36 24 31 41 14 -13 -16 7 6 9 8 5 7 4
Height
3130 3129 3129 3128 3128 3128 3128 3127 3127 3127 3128 3129 3130 3132 3134 3133 3135 3139 3142 3144 3146 3147 3150 3151 3153 3155 3156 3159 3162 3163 3165 3167
3128 3127 3127 3127 3126 3126 3126 3125 3125 3125 3126 3128 3129 3130 3130 3133 3136 3138 3139 3141 3143 3143 3145 3151 3150 3153 3155 3157 3160 3162 3164 3166
3125 3125 3124 3124 3123 3123 3123 3123 3122 3123 3122 3124 3124 3126 3127 3131 3132 3134 3137 3138 3139 3138 3140 3147 3148 3151 3154 3156 3159 3161 3163 3165
3122 3122 3121 3121 3121 3121 3121 3120 3120 3119 3119 3119 3121 3122 3123 3127 3127 3130 3132 3133 3134 3134 3140 3143 3145 3149 3151 3155 3157 3159 3161 3162
3118 3118 3118 3118 3118 3117 3118 3118 3117 3116 3116 3115 3116 3117 3118 3122 3123 3125 3127 3129 3130 3133 3137 3139 3144 3147 3149 3153 3155 3157 3158 3160
3114 3114 3114 3115 3115 3114 3113 3113 3112 3112 3110 3110 3110 3112 3114 3117 3119 3121 3123 3124 3126 3129 3133 3139 3141 3144 3148 3150 3153 3155 3156 3158
3109 3109 3110 3110 3111 3110 3109 3108 3106 3105 3103 3103 3105 3108 3111 3113 3115 3117 3119 3119 3121 3125 3129 3135 3139 3142 3145 3148 3150 3152 3154 3156
3103 3104 3105 3106 3106 3105 3105 3104 3102 3100 3098 3097 3099 3101 3105 3108 3110 3113 3114 3115 3118 3122 3126 3131 3136 3139 3142 3145 3148 3150 3152 3153
3097 3098 3099 3100 3101 3101 3101 3100 3098 3096 3094 3091 3092 3095 3098 3102 3106 3108 3111 3112 3115 3119 3122 3125 3130 3135 3139 3143 3145 3148 3149 3152
3091 3091 3093 3095 3095 3096 3096 3096 3095 3092 3090 3088 3087 3088 3092 3096 3100 3103 3106 3109 3111 3115 3118 3121 3127 3131 3136 3139 3143 3145 3147 3150
3082 3083 3086 3089 3089 3090 3091 3091 3090 3088 3086 3084 3083 3084 3086 3090 3094 3097 3101 3104 3106 3110 3114 3118 3123 3128 3133 3136 3139 3142 3144 3147
3075 3077 3079 3082 3083 3084 3085 3086 3085 3084 3082 3080 3079 3079 3081 3084 3087 3089 3094 3099 3100 3105 3109 3115 3119 3124 3129 3132 3137 3140 3142 3145
3068 3070 3072 3075 3077 3079 3080 3081 3080 3079 3077 3075 3075 3075 3076 3078 3081 3081 3085 3091 3096 3101 3104 3110 3115 3119 3125 3129 3133 3137 3139 3142
3061 3064 3066 3069 3071 3073 3074 3075 3074 3072 3070 3069 3069 3069 3071 3072 3075 3076 3077 3086 3088 3094 3101 3106 3110 3115 3119 3125 3129 3134 3137 3139
3055 3057 3059 3062 3065 3067 3068 3068 3068 3066 3065 3063 3062 3063 3064 3065 3067 3069 3073 3075 3082 3089 3095 3100 3104 3110 3115 3121 3125 3129 3134 3137
3047 3050 3053 3055 3058 3060 3061 3062 3062 3061 3059 3057 3056 3057 3057 3059 3061 3061 3062 3068 3075 3082 3089 3094 3099 3107 3112 3117 3122 3127 3131 3134
3040 3042 3045 3048 3050 3052 3054 3055 3056 3054 3053 3051 3050 3051 3051 3052 3054 3055 3056 3061 3067 3074 3081 3086 3094 3102 3108 3111 3118 3124 3128 3131
3033 3034 3038 3041 3043 3045 3047 3049 3050 3049 3047 3046 3044 3044 3043 3044 3046 3047 3048 3052 3058 3066 3075 3081 3087 3095 3103 3108 3115 3121 3124 3127
3025 3028 3031 3034 3035 3038 3041 3043 3044 3043 3040 3039 3038 3036 3034 3036 3037 3039 3040 3044 3051 3059 3067 3075 3080 3088 3098 3104 3110 3115 3119 3123
3017 3021 3024 3026 3029 3032 3035 3037 3038 3036 3035 3033 3032 3030 3028 3029 3030 3031 3034 3039 3045 3052 3061 3068 3076 3085 3093 3099 3105 3109 3112 3116